Total_Precipitation_Accumulation
0.01 0.01 0.02 0.02 0.03 0.03 0.04 0.05 0.07 0.08 0.09 0.09 0.09 0.10 0.12 0.14 0.17 0.21 0.25 0.30 0.33 0.34 0.35 0.37 0.38 0.38 0.38 0.36 0.36 0.36 0.38 0.51 0.52 0.17 0.10 0.17 0.28 0.33 0.33 0.30 0.29 0.28 0.26
0.03 0.03 0.04 0.04 0.06 0.09 0.11 0.12 0.13 0.14 0.14 0.14 0.13 0.13 0.13 0.14 0.17 0.19 0.23 0.27 0.33 0.37 0.39 0.43 0.44 0.44 0.46 0.46 0.47 0.45 0.43 0.45 0.54 0.36 0.15 0.15 0.24 0.32 0.36 0.35 0.29 0.26 0.24
0.04 0.05 0.06 0.09 0.12 0.16 0.19 0.20 0.20 0.20 0.20 0.19 0.19 0.20 0.20 0.24 0.28 0.28 0.27 0.29 0.32 0.35 0.37 0.42 0.47 0.53 0.57 0.55 0.55 0.54 0.48 0.43 0.44 0.44 0.26 0.18 0.22 0.28 0.34 0.37 0.35 0.32 0.28
0.09 0.11 0.14 0.18 0.22 0.25 0.26 0.25 0.23 0.23 0.24 0.24 0.24 0.26 0.30 0.38 0.52 0.55 0.45 0.41 0.38 0.37 0.37 0.41 0.47 0.56 0.63 0.69 0.73 0.64 0.56 0.56 0.53 0.50 0.36 0.27 0.25 0.28 0.39 0.43 0.42 0.40 0.39
0.20 0.23 0.23 0.22 0.22 0.22 0.22 0.22 0.23 0.25 0.27 0.26 0.25 0.26 0.32 0.47 0.79 0.83 0.66 0.53 0.46 0.44 0.42 0.43 0.47 0.59 0.76 0.91 1.00 0.93 0.85 0.82 0.72 0.66 0.55 0.42 0.37 0.40 0.47 0.47 0.50 0.46 0.47
0.27 0.27 0.25 0.22 0.21 0.21 0.22 0.22 0.23 0.23 0.21 0.18 0.17 0.22 0.31 0.48 0.87 0.93 0.76 0.53 0.47 0.47 0.48 0.43 0.41 0.47 0.55 0.68 0.87 0.92 0.95 0.98 0.96 0.90 0.81 0.69 0.53 0.47 0.52 0.63 0.71 0.69 0.61
0.28 0.28 0.26 0.24 0.23 0.21 0.20 0.18 0.18 0.16 0.13 0.11 0.09 0.12 0.19 0.36 0.73 0.83 0.69 0.46 0.37 0.39 0.39 0.35 0.33 0.33 0.36 0.36 0.45 0.50 0.58 0.72 0.88 0.99 1.04 0.88 0.69 0.61 0.70 0.83 0.86 0.82 0.66
0.25 0.23 0.19 0.16 0.15 0.14 0.14 0.13 0.11 0.10 0.08 0.07 0.05 0.06 0.08 0.16 0.50 0.74 0.59 0.32 0.28 0.30 0.30 0.32 0.34 0.32 0.31 0.35 0.42 0.43 0.40 0.45 0.62 0.82 0.96 0.87 0.79 0.76 0.83 0.97 1.04 1.07 0.91
0.15 0.12 0.09 0.07 0.07 0.08 0.08 0.07 0.06 0.05 0.04 0.03 0.03 0.04 0.04 0.08 0.30 0.66 0.62 0.28 0.26 0.25 0.28 0.37 0.42 0.38 0.36 0.43 0.55 0.51 0.39 0.34 0.39 0.63 0.83 0.85 0.84 0.97 1.11 1.34 1.49 1.54 1.43
0.07 0.05 0.03 0.02 0.03 0.04 0.04 0.03 0.03 0.02 0.03 0.03 0.03 0.03 0.03 0.05 0.18 0.54 0.75 0.38 0.30 0.25 0.27 0.37 0.55 0.52 0.46 0.46 0.53 0.51 0.43 0.32 0.29 0.33 0.41 0.52 0.59 0.66 0.90 1.22 1.39 1.44 1.45
0.02 0.01 0.01 0.00 0.01 0.01 0.02 0.02 0.02 0.03 0.03 0.03 0.03 0.03 0.03 0.04 0.08 0.34 0.75 0.64 0.43 0.34 0.33 0.41 0.53 0.50 0.46 0.44 0.46 0.45 0.43 0.39 0.36 0.34 0.32 0.33 0.40 0.52 0.66 0.92 1.13 1.23 1.31
0.00 0.00 0.00 0.00 0.01 0.01 0.02 0.02 0.03 0.03 0.04 0.04 0.05 0.04 0.03 0.03 0.07 0.22 0.50 0.65 0.56 0.38 0.36 0.33 0.39 0.39 0.40 0.40 0.37 0.38 0.38 0.40 0.40 0.35 0.29 0.25 0.27 0.35 0.48 0.65 0.89 1.02 1.09
0.00 0.00 0.01 0.01 0.01 0.02 0.02 0.03 0.04 0.04 0.07 0.09 0.09 0.08 0.05 0.04 0.07 0.20 0.29 0.33 0.40 0.34 0.37 0.49 0.42 0.33 0.29 0.24 0.22 0.26 0.29 0.30 0.35 0.32 0.24 0.17 0.17 0.23 0.32 0.46 0.63 0.81 0.92
0.01 0.01 0.01 0.01 0.02 0.02 0.03 0.04 0.05 0.08 0.18 0.26 0.22 0.18 0.12 0.09 0.17 0.34 0.35 0.24 0.26 0.29 0.28 0.34 0.32 0.23 0.17 0.13 0.11 0.13 0.17 0.23 0.28 0.27 0.19 0.14 0.13 0.18 0.25 0.36 0.51 0.66 0.84
0.01 0.02 0.02 0.02 0.03 0.03 0.03 0.04 0.07 0.09 0.25 0.44 0.40 0.37 0.34 0.32 0.42 0.63 0.58 0.45 0.44 0.42 0.39 0.34 0.26 0.21 0.19 0.15 0.11 0.08 0.09 0.15 0.20 0.21 0.19 0.18 0.17 0.19 0.22 0.28 0.45 0.60 0.77
0.03 0.03 0.04 0.04 0.04 0.04 0.05 0.05 0.05 0.07 0.14 0.18 0.22 0.32 0.31 0.42 0.52 0.48 0.43 0.41 0.41 0.40 0.41 0.36 0.24 0.18 0.16 0.14 0.13 0.10 0.09 0.10 0.12 0.16 0.19 0.19 0.20 0.21 0.23 0.26 0.39 0.54 0.65
0.04 0.05 0.06 0.06 0.06 0.07 0.09 0.11 0.10 0.06 0.06 0.06 0.09 0.17 0.25 0.34 0.37 0.35 0.35 0.29 0.26 0.26 0.30 0.24 0.17 0.14 0.13 0.12 0.11 0.11 0.09 0.07 0.10 0.15 0.17 0.19 0.22 0.25 0.27 0.30 0.36 0.47 0.58
0.04 0.06 0.08 0.08 0.09 0.11 0.13 0.14 0.15 0.15 0.11 0.06 0.04 0.08 0.15 0.22 0.25 0.26 0.27 0.24 0.19 0.16 0.18 0.17 0.15 0.12 0.12 0.12 0.12 0.11 0.10 0.10 0.12 0.14 0.16 0.17 0.21 0.28 0.31 0.31 0.35 0.47 0.57
0.04 0.06 0.09 0.10 0.11 0.12 0.13 0.13 0.13 0.13 0.12 0.09 0.07 0.07 0.10 0.12 0.13 0.14 0.16 0.20 0.19 0.14 0.13 0.13 0.13 0.14 0.15 0.14 0.12 0.11 0.12 0.12 0.11 0.13 0.15 0.16 0.19 0.28 0.31 0.29 0.33 0.44 0.61
0.05 0.08 0.12 0.12 0.12 0.12 0.12 0.14 0.15 0.16 0.16 0.14 0.13 0.12 0.18 0.22 0.19 0.14 0.13 0.16 0.17 0.16 0.15 0.16 0.14 0.14 0.16 0.15 0.14 0.13 0.13 0.12 0.12 0.13 0.15 0.16 0.19 0.26 0.30 0.30 0.36 0.46 0.56
0.07 0.08 0.11 0.12 0.12 0.13 0.15 0.18 0.20 0.21 0.21 0.18 0.13 0.13 0.34 0.41 0.27 0.16 0.14 0.16 0.19 0.21 0.20 0.19 0.16 0.15 0.15 0.15 0.16 0.15 0.14 0.12 0.11 0.14 0.16 0.17 0.21 0.27 0.29 0.33 0.38 0.45 0.54
0.10 0.12 0.13 0.14 0.14 0.15 0.19 0.20 0.21 0.23 0.22 0.19 0.14 0.11 0.17 0.19 0.17 0.17 0.16 0.16 0.18 0.21 0.23 0.25 0.21 0.17 0.18 0.20 0.20 0.19 0.16 0.13 0.12 0.15 0.17 0.19 0.22 0.27 0.30 0.35 0.40 0.47 0.55
0.15 0.17 0.16 0.13 0.13 0.16 0.17 0.16 0.19 0.22 0.21 0.19 0.18 0.16 0.15 0.16 0.16 0.18 0.18 0.18 0.20 0.22 0.23 0.25 0.25 0.20 0.17 0.19 0.20 0.23 0.23 0.19 0.17 0.20 0.26 0.27 0.27 0.30 0.34 0.39 0.42 0.49 0.55
0.18 0.18 0.17 0.16 0.15 0.17 0.19 0.19 0.19 0.20 0.21 0.22 0.20 0.19 0.17 0.17 0.17 0.16 0.17 0.18 0.21 0.23 0.24 0.27 0.27 0.23 0.20 0.21 0.20 0.20 0.21 0.26 0.34 0.39 0.39 0.40 0.38 0.35 0.37 0.42 0.44 0.47 0.54
0.16 0.17 0.18 0.20 0.21 0.22 0.23 0.22 0.21 0.22 0.23 0.24 0.23 0.20 0.18 0.17 0.17 0.16 0.16 0.19 0.22 0.23 0.22 0.24 0.26 0.25 0.22 0.21 0.20 0.20 0.22 0.31 0.42 0.56 0.67 0.68 0.58 0.47 0.46 0.48 0.48 0.50 0.55
0.15 0.16 0.18 0.20 0.24 0.26 0.29 0.29 0.26 0.26 0.28 0.26 0.24 0.23 0.22 0.22 0.20 0.19 0.21 0.26 0.30 0.28 0.25 0.24 0.23 0.23 0.22 0.21 0.19 0.20 0.28 0.43 0.56 0.71 0.89 0.98 0.82 0.62 0.54 0.56 0.54 0.56 0.60